Cloud_Cover
8 5 5 5 4 3 8 10 84 100 94 25 0 0 1 0 0 0 0 0 2 4 0 0 0 0 0 0 0 0 0 1 45 5 48 100 100 100
6 5 5 1 1 2 15 18 51 99 100 35 0 0 0 0 0 0 0 0 0 2 5 0 0 0 0 0 0 0 0 1 0 5 5 11 90 100
19 64 30 5 5 5 2 14 47 89 100 40 25 0 0 0 0 0 0 0 0 0 0 5 3 0 0 0 0 0 1 2 0 0 5 5 28 82
85 100 34 5 5 5 3 0 6 6 92 100 49 73 0 0 0 0 0 0 0 0 0 0 4 5 0 0 0 0 0 1 5 2 12 17 7 5
5 5 6 5 5 5 4 0 0 0 36 100 99 100 22 0 7 0 0 0 0 0 0 0 0 1 45 42 0 0 0 0 0 0 4 1 14 8
0 2 5 0 0 0 0 0 0 14 24 86 100 100 97 29 90 63 10 0 0 0 0 0 0 0 0 16 93 44 0 0 0 0 0 0 0 0
5 5 4 3 4 4 6 30 30 55 63 98 100 100 74 22 100 100 99 34 0 0 0 0 0 4 2 0 0 18 93 17 0 0 0 0 0 0
8 4 5 7 5 0 0 5 6 100 100 100 100 100 99 53 100 100 100 100 99 1 0 0 0 0 0 0 0 0 1 39 28 5 0 0 0 0
5 5 5 5 2 1 3 0 0 0 34 97 100 100 100 100 100 100 100 84 100 92 100 21 0 0 0 0 0 0 0 1 5 6 100 33 2 0
5 5 5 5 5 5 12 18 5 5 4 2 9 39 73 100 100 100 100 100 100 54 51 23 3 4 1 2 0 0 0 0 0 1 30 41 72 42
68 60 32 6 5 29 80 100 93 50 44 75 77 40 21 28 86 99 100 100 100 99 51 38 5 5 5 2 3 0 0 0 0 0 10 35 83 7
18 100 100 96 85 98 73 86 89 100 100 100 73 87 86 73 64 99 100 100 100 100 100 80 100 100 79 14 19 5 5 2 2 4 5 99 100 100
86 100 100 100 100 100 100 100 99 100 100 100 100 100 100 100 100 100 100 100 100 100 100 100 100 100 100 68 5 17 5 5 5 5 5 98 100 100
18 81 100 100 100 100 100 100 100 79 100 100 100 100 100 100 100 100 100 100 100 100 100 100 100 100 100 100 97 90 61 8 22 20 23 24 86 100
5 5 5 32 98 100 100 100 100 100 100 100 100 100 100 100 100 100 100 100 100 100 100 100 100 100 100 100 100 100 100 100 100 66 67 25 15 6
10 5 68 100 100 100 100 100 100 100 100 100 100 100 100 100 100 100 100 100 100 100 100 100 100 100 100 100 100 100 100 99 95 81 85 77 6 5
6 5 6 89 100 100 100 100 100 100 100 100 100 100 100 100 100 100 100 100 100 100 100 100 100 100 100 100 100 100 100 100 100 94 56 99 99 53
5 5 5 5 8 25 63 100 100 100 100 100 100 100 100 100 100 100 100 100 100 100 100 100 100 100 100 100 100 100 100 100 100 89 100 100 100 96
8 5 5 6 17 15 12 80 100 100 100 100 100 99 71 100 100 100 100 100 100 100 100 100 100 100 100 100 100 100 100 100 100 100 100 99 100 80
5 5 5 33 26 6 13 9 62 89 100 100 100 100 100 100 100 100 100 100 100 100 100 100 100 100 100 100 100 100 100 100 100 100 100 100 98 64
5 15 89 100 100 100 96 88 99 81 67 99 100 100 100 100 100 100 100 100 100 100 100 100 100 100 100 100 100 100 100 100 100 100 100 100 100 87
30 96 100 100 100 98 71 21 65 90 73 54 98 100 100 100 94 100 100 100 100 100 100 100 100 100 100 100 100 100 100 100 100 100 100 100 55 50
97 100 100 100 97 95 100 100 87 76 100 100 100 100 100 100 100 100 100 100 100 100 100 100 100 100 100 100 100 100 100 100 100 100 100 100 100 100